Time,TemperatureF,DewpointF,PressureIn,WindDirection,WindDirectionDegrees,WindSpeedMPH,WindSpeedGustMPH,Humidity,HourlyPrecipIn,Conditions,Clouds,dailyrainin,SolarRadiationWatts/m^2,SoftwareType,DateUTC
2013-06-04 00:02:00,77.0,12.0,30.04,WNW,282,19.0,24.0,8,-99.99,,,-99.99,0.000000,,2013-06-04 06:02:00,
2013-06-04 00:12:00,77.0,12.0,30.04,West,279,18.0,21.0,8,-99.99,,,-99.99,0.000000,,2013-06-04 06:12:00,
2013-06-04 00:22:00,77.0,12.0,30.04,West,276,18.0,22.0,8,-99.99,,,-99.99,0.000000,,2013-06-04 06:22:00,
2013-06-04 00:32:00,77.0,12.0,30.04,West,279,17.0,21.0,8,-99.99,,,-99.99,0.000000,,2013-06-04 06:32:00,
2013-06-04 00:42:00,77.0,12.0,30.04,West,279,17.0,21.0,8,-99.99,,,-99.99,0.000000,,2013-06-04 06:42:00,
2013-06-04 00:52:00,77.0,12.0,30.04,West,277,18.0,23.0,8,-99.99,,,-99.99,0.000000,,2013-06-04 06:52:00,
2013-06-04 01:02:00,77.0,12.0,30.04,West,277,18.0,23.0,8,-99.99,,,-99.99,0.000000,,2013-06-04 07:02:00,
2013-06-04 01:12:00,77.0,12.0,30.04,West,280,17.0,23.0,8,-99.99,,,-99.99,0.000000,,2013-06-04 07:12:00,
2013-06-04 01:22:00,77.0,12.0,30.05,West,279,15.0,19.0,8,-99.99,,,-99.99,0.000000,,2013-06-04 07:22:00,
2013-06-04 01:32:00,77.0,12.0,30.05,West,279,15.0,19.0,8,-99.99,,,-99.99,0.000000,,2013-06-04 07:32:00,
2013-06-04 01:42:00,77.0,12.0,30.05,West,278,14.0,18.0,8,-99.99,,,-99.99,0.000000,,2013-06-04 07:42:00,
2013-06-04 01:52:00,76.0,12.0,30.05,West,280,14.0,18.0,8,-99.99,,,-99.99,0.000000,,2013-06-04 07:52:00,
2013-06-04 02:02:00,76.0,12.0,30.05,West,280,14.0,18.0,8,-99.99,,,-99.99,0.000000,,2013-06-04 08:02:00,
2013-06-04 02:12:00,76.0,12.0,30.05,WNW,282,14.0,17.0,8,-99.99,,,-99.99,0.000000,,2013-06-04 08:12:00,
2013-06-04 02:22:00,76.0,12.0,30.05,West,275,12.0,15.0,8,-99.99,,,-99.99,0.000000,,2013-06-04 08:22:00,
2013-06-04 02:32:00,75.0,12.0,30.05,West,268,13.0,15.0,8,-99.99,,,-99.99,0.000000,,2013-06-04 08:32:00,
2013-06-04 02:42:00,75.0,12.0,30.05,West,268,13.0,15.0,8,-99.99,,,-99.99,0.000000,,2013-06-04 08:42:00,
2013-06-04 02:52:00,74.0,12.0,30.05,West,271,13.0,16.0,9,-99.99,,,-99.99,0.000000,,2013-06-04 08:52:00,
2013-06-04 03:02:00,74.0,12.0,30.05,West,271,13.0,16.0,9,-99.99,,,-99.99,0.000000,,2013-06-04 09:02:00,
2013-06-04 03:12:00,74.0,12.0,30.05,West,274,13.0,17.0,8,-99.99,,,-99.99,0.000000,,2013-06-04 09:12:00,
2013-06-04 03:22:00,75.0,12.0,30.05,West,276,12.0,15.0,8,-99.99,,,-99.99,0.000000,,2013-06-04 09:22:00,
2013-06-04 03:33:00,75.0,12.0,30.05,West,276,12.0,15.0,8,-99.99,,,-99.99,0.000000,,2013-06-04 09:33:00,
2013-06-04 03:43:00,75.0,12.0,30.05,West,280,11.0,13.0,8,-99.99,,,-99.99,0.000000,,2013-06-04 09:43:00,
2013-06-04 03:53:00,74.0,12.0,30.06,WNW,284,10.0,12.0,8,-99.99,,,-99.99,0.000000,,2013-06-04 09:53:00,
2013-06-04 04:02:00,74.0,12.0,30.06,WNW,284,10.0,12.0,8,-99.99,,,-99.99,0.000000,,2013-06-04 10:02:00,
2013-06-04 04:12:00,75.0,12.0,30.06,WNW,293,10.0,12.0,8,-99.99,,,-99.99,0.000000,,2013-06-04 10:12:00,
2013-06-04 04:23:00,74.0,11.0,30.06,West,274,8.0,12.0,9,-99.99,,,-99.99,0.000000,,2013-06-04 10:23:00,
2013-06-04 04:33:00,73.0,11.0,30.06,West,272,8.0,10.0,9,-99.99,,,-99.99,0.000000,,2013-06-04 10:33:00,
2013-06-04 04:42:00,73.0,11.0,30.06,West,272,8.0,10.0,9,-99.99,,,-99.99,0.000000,,2013-06-04 10:42:00,
2013-06-04 04:53:00,73.0,11.0,30.07,West,276,8.0,10.0,9,-99.99,,,-99.99,0.000000,,2013-06-04 10:53:00,
2013-06-04 05:02:00,73.0,11.0,30.07,West,276,8.0,10.0,9,-99.99,,,-99.99,0.000000,,2013-06-04 11:02:00,
2013-06-04 05:12:00,72.0,11.0,30.07,West,260,8.0,10.0,9,-99.99,,,-99.99,0.000000,,2013-06-04 11:12:00,
2013-06-04 05:22:00,72.0,12.0,30.07,West,269,9.0,12.0,9,-99.99,,,-99.99,0.000000,,2013-06-04 11:22:00,
2013-06-04 05:32:00,72.0,12.0,30.07,West,269,9.0,12.0,9,-99.99,,,-99.99,0.000000,,2013-06-04 11:32:00,
2013-06-04 05:42:00,72.0,13.0,30.08,West,271,9.0,13.0,10,-99.99,,,-99.99,0.000000,,2013-06-04 11:42:00,
2013-06-04 05:52:00,71.0,14.0,30.08,West,273,10.0,13.0,11,-99.99,,,-99.99,0.000000,,2013-06-04 11:52:00,
2013-06-04 06:02:00,71.0,14.0,30.08,West,273,10.0,13.0,11,-99.99,,,-99.99,0.000000,,2013-06-04 12:02:00,
2013-06-04 06:12:00,70.0,15.0,30.08,West,275,11.0,14.0,11,-99.99,,,-99.99,0.000000,,2013-06-04 12:12:00,
2013-06-04 06:22:00,70.0,15.0,30.08,West,272,11.0,14.0,11,-99.99,,,-99.99,2.090000,,2013-06-04 12:22:00,
2013-06-04 06:32:00,70.0,15.0,30.08,West,272,11.0,14.0,11,-99.99,,,-99.99,2.090000,,2013-06-04 12:32:00,
2013-06-04 06:42:00,70.0,15.0,30.08,West,266,11.0,13.0,11,-99.99,,,-99.99,13.950000,,2013-06-04 12:42:00,
2013-06-04 06:53:00,71.0,15.0,30.09,West,264,10.0,13.0,11,-99.99,,,-99.99,49.509998,,2013-06-04 12:53:00,
2013-06-04 07:02:00,71.0,15.0,30.09,West,264,10.0,13.0,11,-99.99,,,-99.99,49.509998,,2013-06-04 13:02:00,
2013-06-04 07:12:00,71.0,15.0,30.09,West,267,10.0,13.0,11,-99.99,,,-99.99,99.720001,,2013-06-04 13:12:00,
2013-06-04 07:22:00,71.0,15.0,30.10,West,269,11.0,13.0,11,-99.99,,,-99.99,147.830002,,2013-06-04 13:22:00,
2013-06-04 07:32:00,71.0,15.0,30.10,West,269,11.0,13.0,11,-99.99,,,-99.99,147.830002,,2013-06-04 13:32:00,
2013-06-04 07:42:00,71.0,15.0,30.11,West,270,10.0,12.0,11,-99.99,,,-99.99,198.039993,,2013-06-04 13:42:00,
2013-06-04 07:52:00,71.0,15.0,30.11,West,269,9.0,12.0,11,-99.99,,,-99.99,248.250000,,2013-06-04 13:52:00,
2013-06-04 08:02:00,71.0,15.0,30.11,West,269,9.0,12.0,11,-99.99,,,-99.99,248.250000,,2013-06-04 14:02:00,
2013-06-04 08:12:00,72.0,16.0,30.12,West,270,8.0,11.0,11,-99.99,,,-99.99,300.549988,,2013-06-04 14:12:00,
2013-06-04 08:22:00,73.0,16.0,30.12,West,269,7.0,11.0,10,-99.99,,,-99.99,352.850006,,2013-06-04 14:22:00,
2013-06-04 08:32:00,73.0,16.0,30.12,West,269,7.0,11.0,10,-99.99,,,-99.99,352.850006,,2013-06-04 14:32:00,
2013-06-04 08:42:00,75.0,16.0,30.12,West,276,6.0,12.0,10,-99.99,,,-99.99,405.850006,,2013-06-04 14:42:00,
2013-06-04 08:52:00,75.0,16.0,30.12,West,276,6.0,12.0,10,-99.99,,,-99.99,405.850006,,2013-06-04 14:52:00,
2013-06-04 09:02:00,75.0,16.0,30.12,West,276,6.0,12.0,10,-99.99,,,-99.99,405.850006,,2013-06-04 15:02:00,
2013-06-04 09:12:00,78.0,17.0,30.12,West,270,8.0,12.0,9,-99.99,,,-99.99,511.149994,,2013-06-04 15:12:00,
2013-06-04 09:22:00,80.0,17.0,30.12,WNW,291,8.0,12.0,9,-99.99,,,-99.99,562.750000,,2013-06-04 15:22:00,
2013-06-04 09:33:00,81.0,18.0,30.12,WNW,285,9.0,13.0,9,-99.99,,,-99.99,613.650024,,2013-06-04 15:33:00,
2013-06-04 09:42:00,81.0,18.0,30.12,WNW,285,9.0,13.0,9,-99.99,,,-99.99,613.650024,,2013-06-04 15:42:00,
2013-06-04 09:53:00,81.0,18.0,30.12,WNW,285,9.0,13.0,9,-99.99,,,-99.99,613.650024,,2013-06-04 15:53:00,
2013-06-04 10:03:00,81.0,18.0,30.12,WNW,285,9.0,13.0,9,-99.99,,,-99.99,613.650024,,2013-06-04 16:03:00,
2013-06-04 10:12:00,83.0,19.0,30.12,West,275,9.0,16.0,9,-99.99,,,-99.99,709.190002,,2013-06-04 16:12:00,
2013-06-04 10:23:00,82.0,18.0,30.12,West,273,14.0,23.0,9,-99.99,,,-99.99,753.119995,,2013-06-04 16:23:00,
2013-06-04 10:33:00,82.0,18.0,30.12,West,273,14.0,23.0,9,-99.99,,,-99.99,753.119995,,2013-06-04 16:33:00,
2013-06-04 10:42:00,82.0,19.0,30.12,West,272,16.0,22.0,9,-99.99,,,-99.99,794.260010,,2013-06-04 16:42:00,
2013-06-04 10:53:00,83.0,19.0,30.13,West,268,17.0,24.0,9,-99.99,,,-99.99,832.619995,,2013-06-04 16:53:00,
2013-06-04 11:02:00,83.0,19.0,30.13,West,268,17.0,24.0,9,-99.99,,,-99.99,832.619995,,2013-06-04 17:02:00,
2013-06-04 11:12:00,82.0,20.0,30.12,West,260,20.0,28.0,9,-99.99,,,-99.99,868.179993,,2013-06-04 17:12:00,
2013-06-04 11:23:00,81.0,20.0,30.12,West,262,20.0,30.0,10,-99.99,,,-99.99,900.260010,,2013-06-04 17:23:00,
2013-06-04 11:32:00,81.0,20.0,30.12,West,262,20.0,30.0,10,-99.99,,,-99.99,900.260010,,2013-06-04 17:32:00,
2013-06-04 11:42:00,82.0,22.0,30.12,WSW,250,22.0,32.0,10,-99.99,,,-99.99,928.849976,,2013-06-04 17:42:00,
2013-06-04 11:52:00,82.0,22.0,30.12,WSW,247,24.0,33.0,11,-99.99,,,-99.99,955.349976,,2013-06-04 17:52:00,
2013-06-04 12:02:00,82.0,22.0,30.12,WSW,247,24.0,33.0,11,-99.99,,,-99.99,955.349976,,2013-06-04 18:02:00,
2013-06-04 12:12:00,83.0,23.0,30.11,West,261,26.0,38.0,11,-99.99,,,-99.99,975.570007,,2013-06-04 18:12:00,
2013-06-04 12:22:00,83.0,23.0,30.11,WSW,251,27.0,39.0,11,-99.99,,,-99.99,991.609985,,2013-06-04 18:22:00,
2013-06-04 12:32:00,83.0,23.0,30.11,WSW,251,27.0,39.0,11,-99.99,,,-99.99,991.609985,,2013-06-04 18:32:00,
2013-06-04 12:42:00,83.0,23.0,30.10,WSW,252,27.0,39.0,10,-99.99,,,-99.99,1007.650024,,2013-06-04 18:42:00,
2013-06-04 12:53:00,84.0,22.0,30.10,WSW,253,29.0,41.0,10,-99.99,,,-99.99,1013.919983,,2013-06-04 18:53:00,
2013-06-04 13:02:00,84.0,22.0,30.10,WSW,253,29.0,41.0,10,-99.99,,,-99.99,1013.919983,,2013-06-04 19:02:00,
2013-06-04 13:12:00,84.0,22.0,30.10,West,261,24.0,35.0,10,-99.99,,,-99.99,1017.409973,,2013-06-04 19:12:00,
2013-06-04 13:22:00,84.0,23.0,30.09,WSW,250,27.0,41.0,10,-99.99,,,-99.99,1012.530029,,2013-06-04 19:22:00,
2013-06-04 13:32:00,84.0,23.0,30.09,WSW,250,27.0,41.0,10,-99.99,,,-99.99,1012.530029,,2013-06-04 19:32:00,
2013-06-04 13:42:00,85.0,23.0,30.08,WSW,255,27.0,44.0,10,-99.99,,,-99.99,1011.130005,,2013-06-04 19:42:00,
2013-06-04 13:52:00,85.0,23.0,30.08,West,262,29.0,41.0,10,-99.99,,,-99.99,1011.130005,,2013-06-04 19:52:00,
2013-06-04 14:02:00,85.0,23.0,30.08,West,262,29.0,41.0,10,-99.99,,,-99.99,1011.130005,,2013-06-04 20:02:00,
2013-06-04 14:12:00,85.0,23.0,30.07,WSW,253,30.0,46.0,10,-99.99,,,-99.99,1006.250000,,2013-06-04 20:12:00,
2013-06-04 14:22:00,85.0,23.0,30.07,WSW,246,27.0,42.0,10,-99.99,,,-99.99,998.580017,,2013-06-04 20:22:00,
2013-06-04 14:32:00,85.0,23.0,30.06,WSW,246,29.0,50.0,10,-99.99,,,-99.99,981.150024,,2013-06-04 20:32:00,
2013-06-04 14:42:00,85.0,23.0,30.06,WSW,246,29.0,50.0,10,-99.99,,,-99.99,981.150024,,2013-06-04 20:42:00,
2013-06-04 14:53:00,85.0,23.0,30.07,WSW,246,26.0,39.0,10,-99.99,,,-99.99,972.080017,,2013-06-04 20:53:00,
2013-06-04 15:02:00,85.0,23.0,30.07,WSW,246,26.0,39.0,10,-99.99,,,-99.99,972.080017,,2013-06-04 21:02:00,
2013-06-04 15:12:00,85.0,24.0,30.06,WSW,242,28.0,44.0,10,-99.99,,,-99.99,935.119995,,2013-06-04 21:12:00,
2013-06-04 15:22:00,86.0,24.0,30.06,WSW,251,25.0,37.0,10,-99.99,,,-99.99,908.630005,,2013-06-04 21:22:00,
2013-06-04 15:33:00,86.0,24.0,30.06,WSW,251,25.0,37.0,10,-99.99,,,-99.99,908.630005,,2013-06-04 21:33:00,
2013-06-04 15:42:00,86.0,24.0,30.04,WSW,247,30.0,47.0,10,-99.99,,,-99.99,901.650024,,2013-06-04 21:42:00,
2013-06-04 15:53:00,87.0,24.0,30.05,West,259,25.0,39.0,10,-99.99,,,-99.99,875.150024,,2013-06-04 21:53:00,
2013-06-04 16:02:00,87.0,24.0,30.05,West,259,25.0,39.0,10,-99.99,,,-99.99,875.150024,,2013-06-04 22:02:00,
2013-06-04 16:12:00,87.0,25.0,30.04,WSW,252,28.0,45.0,10,-99.99,,,-99.99,672.929993,,2013-06-04 22:12:00,
2013-06-04 16:22:00,85.0,25.0,30.03,WSW,245,30.0,42.0,10,-99.99,,,-99.99,410.730011,,2013-06-04 22:22:00,
2013-06-04 16:32:00,88.0,25.0,30.03,West,271,31.0,40.0,10,-99.99,,,-99.99,460.940002,,2013-06-04 22:32:00,
2013-06-04 16:42:00,88.0,25.0,30.03,West,271,31.0,40.0,10,-99.99,,,-99.99,460.940002,,2013-06-04 22:42:00,
2013-06-04 16:52:00,88.0,25.0,30.03,West,271,31.0,40.0,10,-99.99,,,-99.99,460.940002,,2013-06-04 22:52:00,
2013-06-04 17:02:00,88.0,25.0,30.03,West,271,31.0,40.0,10,-99.99,,,-99.99,460.940002,,2013-06-04 23:02:00,
2013-06-04 17:12:00,88.0,24.0,30.02,West,266,30.0,41.0,10,-99.99,,,-99.99,123.430000,,2013-06-04 23:12:00,
2013-06-04 17:22:00,88.0,25.0,30.01,West,269,33.0,44.0,10,-99.99,,,-99.99,381.440002,,2013-06-04 23:22:00,
2013-06-04 17:32:00,88.0,25.0,30.01,West,269,33.0,44.0,10,-99.99,,,-99.99,381.440002,,2013-06-04 23:32:00,
2013-06-04 17:42:00,86.0,25.0,30.01,West,268,27.0,41.0,10,-99.99,,,-99.99,116.449997,,2013-06-04 23:42:00,
2013-06-04 17:52:00,87.0,25.0,30.01,West,260,29.0,44.0,10,-99.99,,,-99.99,95.529999,,2013-06-04 23:52:00,
2013-06-04 18:02:00,87.0,25.0,30.01,West,260,29.0,44.0,10,-99.99,,,-99.99,95.529999,,2013-06-05 00:02:00,
2013-06-04 18:12:00,87.0,25.0,30.00,West,263,30.0,44.0,10,-99.99,,,-99.99,333.329987,,2013-06-05 00:12:00,
2013-06-04 18:22:00,87.0,26.0,30.00,WSW,258,31.0,45.0,11,-99.99,,,-99.99,100.419998,,2013-06-05 00:22:00,
2013-06-04 18:32:00,87.0,26.0,30.00,WSW,258,31.0,45.0,11,-99.99,,,-99.99,100.419998,,2013-06-05 00:32:00,
2013-06-04 18:42:00,86.0,26.0,29.99,WSW,247,30.0,41.0,11,-99.99,,,-99.99,89.260002,,2013-06-05 00:42:00,
2013-06-04 18:52:00,86.0,26.0,29.99,WSW,247,30.0,41.0,11,-99.99,,,-99.99,89.260002,,2013-06-05 00:52:00,
2013-06-04 19:02:00,86.0,26.0,29.99,WSW,247,30.0,41.0,11,-99.99,,,-99.99,89.260002,,2013-06-05 01:02:00,
2013-06-04 19:12:00,86.0,26.0,30.00,WSW,251,28.0,44.0,11,-99.99,,,-99.99,147.139999,,2013-06-05 01:12:00,
2013-06-04 19:22:00,85.0,27.0,29.99,WSW,255,32.0,39.0,12,-99.99,,,-99.99,58.580002,,2013-06-05 01:22:00,
2013-06-04 19:32:00,85.0,28.0,30.00,WSW,253,32.0,39.0,12,-99.99,,,-99.99,131.800003,,2013-06-05 01:32:00,
2013-06-04 19:42:00,85.0,28.0,30.00,WSW,253,32.0,39.0,12,-99.99,,,-99.99,131.800003,,2013-06-05 01:42:00,
2013-06-04 19:52:00,85.0,28.0,30.00,WSW,253,32.0,39.0,12,-99.99,,,-99.99,131.800003,,2013-06-05 01:52:00,
2013-06-04 20:02:00,85.0,28.0,30.00,WSW,253,32.0,39.0,12,-99.99,,,-99.99,131.800003,,2013-06-05 02:02:00,
2013-06-04 20:12:00,85.0,28.0,29.99,WSW,250,33.0,41.0,12,-99.99,,,-99.99,61.369999,,2013-06-05 02:12:00,
2013-06-04 20:22:00,84.0,28.0,30.00,WSW,256,31.0,41.0,12,-99.99,,,-99.99,23.010000,,2013-06-05 02:22:00,
2013-06-04 20:32:00,83.0,28.0,30.01,WSW,255,30.0,37.0,13,-99.99,,,-99.99,8.370000,,2013-06-05 02:32:00,
2013-06-04 20:42:00,83.0,28.0,30.01,WSW,255,30.0,37.0,13,-99.99,,,-99.99,8.370000,,2013-06-05 02:42:00,
2013-06-04 20:52:00,83.0,28.0,30.01,WSW,255,30.0,37.0,13,-99.99,,,-99.99,8.370000,,2013-06-05 02:52:00,
2013-06-04 21:02:00,83.0,28.0,30.01,WSW,255,30.0,37.0,13,-99.99,,,-99.99,8.370000,,2013-06-05 03:02:00,
2013-06-04 21:12:00,82.0,28.0,30.02,WSW,256,27.0,32.0,14,-99.99,,,-99.99,0.000000,,2013-06-05 03:12:00,
2013-06-04 21:22:00,81.0,28.0,30.02,WSW,256,32.0,44.0,14,-99.99,,,-99.99,0.000000,,2013-06-05 03:22:00,
2013-06-04 21:33:00,81.0,28.0,30.02,WSW,256,32.0,44.0,14,-99.99,,,-99.99,0.000000,,2013-06-05 03:33:00,
2013-06-04 21:43:00,80.0,29.0,30.03,West,259,32.0,42.0,15,-99.99,,,-99.99,0.000000,,2013-06-05 03:43:00,
2013-06-04 21:53:00,79.0,29.0,30.04,West,263,27.0,33.0,16,-99.99,,,-99.99,0.000000,,2013-06-05 03:53:00,
2013-06-04 22:02:00,79.0,29.0,30.04,West,263,27.0,33.0,16,-99.99,,,-99.99,0.000000,,2013-06-05 04:02:00,
2013-06-04 22:13:00,78.0,30.0,30.05,West,265,22.0,29.0,16,-99.99,,,-99.99,0.000000,,2013-06-05 04:13:00,
2013-06-04 22:23:00,77.0,30.0,30.06,West,267,18.0,26.0,17,-99.99,,,-99.99,0.000000,,2013-06-05 04:23:00,
2013-06-04 22:33:00,78.0,30.0,30.06,WSW,251,21.0,27.0,17,-99.99,,,-99.99,0.000000,,2013-06-05 04:33:00,
2013-06-04 22:42:00,78.0,30.0,30.06,WSW,251,21.0,27.0,17,-99.99,,,-99.99,0.000000,,2013-06-05 04:42:00,
2013-06-04 22:53:00,78.0,30.0,30.06,WSW,251,21.0,27.0,17,-99.99,,,-99.99,0.000000,,2013-06-05 04:53:00,
2013-06-04 23:02:00,78.0,30.0,30.06,WSW,251,21.0,27.0,17,-99.99,,,-99.99,0.000000,,2013-06-05 05:02:00,
2013-06-04 23:12:00,78.0,30.0,30.06,WSW,257,25.0,34.0,17,-99.99,,,-99.99,0.000000,,2013-06-05 05:12:00,
2013-06-04 23:22:00,78.0,30.0,30.06,West,262,26.0,35.0,17,-99.99,,,-99.99,0.000000,,2013-06-05 05:22:00,
2013-06-04 23:32:00,78.0,30.0,30.06,WSW,257,24.0,31.0,17,-99.99,,,-99.99,0.000000,,2013-06-05 05:32:00,
2013-06-04 23:42:00,78.0,30.0,30.06,WSW,257,24.0,31.0,17,-99.99,,,-99.99,0.000000,,2013-06-05 05:42:00,
2013-06-04 23:52:00,78.0,30.0,30.06,WSW,254,25.0,33.0,17,-99.99,,,-99.99,0.000000,,2013-06-05 05:52:00,